Wind_Speed
5 4 4 4 4 5 6 8 9 8 6 5 3 4 5 4 5 6 5 4 3 4 4 2 2 3 4 4 3 3 3 3 2 2 2 3 4 4 4 4 4 5 5 5 5 5 6 5 6 7 8 8 9 10 10 11 11 11 12 12 13 13 12 12 11 11 11 10 11 12 14 15 15 14 14 13 12 12 12 13 14 15 16 16 16 17 17 17
5 4 4 4 4 5 5 5 5 5 4 4 4 4 4 3 3 4 4 3 3 4 5 3 3 4 4 5 5 5 5 5 4 3 3 4 4 4 5 5 5 6 6 6 6 6 6 6 6 7 8 8 9 10 11 11 13 13 14 14 14 14 14 14 13 13 12 10 9 11 13 16 17 16 15 14 13 12 13 14 15 16 17 17 17 18 18 18
6 5 5 5 5 6 6 6 5 5 4 3 2 1 0 1 2 4 4 5 4 4 3 2 3 4 4 5 5 6 6 6 5 4 4 4 4 4 5 5 6 7 7 7 6 6 6 7 7 7 8 9 10 11 12 13 13 14 15 15 15 14 14 14 14 14 14 12 10 10 11 14 15 15 14 14 13 14 14 15 16 16 17 18 18 19 19 19
6 6 6 5 6 6 6 6 5 5 5 4 4 3 2 1 0 1 2 2 2 2 2 2 2 4 4 4 5 5 5 6 5 5 4 4 4 5 6 5 6 7 8 7 7 7 7 7 8 8 8 9 11 12 14 14 14 14 14 14 14 13 13 12 13 13 14 14 13 12 11 12 13 14 14 14 15 16 16 16 17 17 18 18 19 19 19 19
7 6 5 5 5 5 5 5 5 5 5 5 4 4 3 2 2 2 2 3 3 3 3 3 3 4 4 5 5 5 5 5 5 4 4 5 7 8 7 6 6 7 8 8 8 8 8 8 8 9 10 10 12 13 15 16 15 15 14 13 13 12 11 10 10 11 12 13 14 13 12 12 13 14 15 16 17 17 17 17 17 18 18 18 18 18 18 18
5 5 4 5 5 5 5 5 5 5 5 5 5 4 4 3 3 4 4 4 4 4 4 4 4 5 5 5 6 6 6 6 6 6 6 7 8 8 7 7 7 7 8 9 9 9 9 9 9 10 10 11 12 14 15 16 17 16 16 14 13 11 10 9 8 8 10 13 13 13 13 14 15 16 17 17 18 18 18 18 18 17 17 17 17 17 17 18
4 4 4 4 5 4 4 4 4 5 5 5 5 5 4 4 5 5 5 5 5 5 5 5 5 5 5 6 6 6 6 6 7 7 7 7 7 8 8 8 8 8 8 9 9 10 10 10 10 11 11 12 13 15 16 16 16 17 16 15 13 12 11 10 8 9 11 13 13 14 14 15 16 16 17 18 19 19 19 18 18 18 17 17 17 17 17 17
3 3 3 3 4 3 3 4 4 4 4 5 5 5 5 5 5 5 5 5 5 5 4 4 5 5 5 5 6 6 6 6 7 7 7 7 8 9 9 9 9 9 9 8 9 9 10 10 10 11 12 13 14 14 15 15 16 16 16 15 14 13 12 11 11 12 13 13 14 15 15 16 16 17 17 18 19 19 19 18 18 18 17 17 16 17 17 17
3 3 4 3 4 4 4 4 5 5 4 4 5 5 6 5 5 5 4 4 3 3 2 2 3 4 5 5 5 5 5 6 7 7 7 8 8 8 8 9 9 9 9 8 8 9 10 10 11 12 13 13 14 14 14 14 15 16 16 16 16 15 14 13 14 14 14 14 15 16 16 17 17 18 18 19 18 18 18 17 17 17 17 17 17 17 17 17
3 4 4 4 5 5 5 5 6 5 5 5 5 5 6 5 4 4 3 2 1 1 1 1 2 3 3 4 4 4 4 5 6 5 6 7 7 6 6 7 7 8 8 8 8 9 9 10 11 12 12 13 14 14 14 15 15 16 16 16 17 16 16 15 16 16 16 16 17 17 18 18 18 18 19 18 18 17 17 17 17 17 17 17 17 17 17 16
4 4 4 4 5 6 7 7 7 6 6 6 5 5 5 5 4 3 2 1 1 1 1 0 1 1 1 2 3 3 3 5 5 4 5 5 5 5 4 5 6 6 7 8 8 9 9 10 10 11 11 13 14 14 14 15 15 15 15 16 16 17 17 17 17 17 17 17 18 18 18 18 18 18 18 17 16 16 16 16 17 17 17 17 17 17 17 16
4 4 4 4 6 7 8 8 7 7 6 6 5 4 4 4 3 3 2 1 1 0 0 0 0 0 1 1 3 4 5 5 6 5 5 4 4 4 4 4 5 5 6 7 8 8 9 9 9 10 11 12 12 12 13 14 15 14 14 14 15 16 17 17 18 18 18 18 18 17 18 19 18 17 16 16 15 15 16 16 16 16 16 17 17 17 17 16
4 3 4 4 5 6 6 7 7 6 6 5 5 4 3 3 2 2 2 1 1 1 1 1 1 1 1 1 4 6 5 5 6 5 5 5 4 4 4 4 5 5 5 6 7 7 8 8 8 10 11 12 11 12 11 12 13 13 13 13 13 14 16 17 18 18 18 18 18 17 17 17 15 14 15 15 15 14 14 15 15 16 17 17 17 18 17 16
4 3 3 4 4 5 5 6 7 7 7 6 5 4 3 3 3 2 2 1 2 2 2 2 2 1 1 3 5 6 6 4 4 4 4 4 5 4 5 5 5 6 6 6 7 7 8 8 9 9 11 12 12 13 13 12 12 12 12 12 13 14 15 17 17 17 18 18 18 18 18 18 16 15 15 15 14 14 14 15 16 17 17 18 18 18 17 17
3 4 5 4 4 5 6 7 7 8 8 6 4 3 4 4 4 3 3 3 4 4 4 3 3 3 3 4 4 4 4 3 2 2 3 3 4 4 5 5 6 6 6 6 6 7 7 8 9 10 11 12 13 14 14 13 12 13 12 11 13 15 15 16 17 17 18 18 18 17 17 16 16 16 15 14 14 15 16 17 17 18 18 19 19 18 18 17
5 6 5 4 4 5 5 6 7 8 8 6 4 4 4 4 4 4 3 4 5 5 5 4 3 3 3 4 4 4 5 4 4 4 4 4 4 4 4 4 5 6 6 6 6 6 6 7 8 10 11 12 12 12 12 11 12 13 14 13 13 14 14 15 16 17 17 18 19 18 17 16 15 15 14 15 16 17 18 18 19 19 19 19 19 19 18 16
6 6 5 5 6 5 4 5 6 8 9 7 5 5 5 5 4 3 3 4 5 6 6 4 4 4 3 4 6 5 6 6 5 4 4 5 5 5 5 5 4 4 5 5 6 6 6 7 8 9 10 10 10 11 10 10 12 14 15 15 14 14 15 15 16 16 16 18 19 20 21 20 18 17 16 17 18 18 19 19 19 20 20 20 19 18 17 16
6 6 6 7 7 5 3 4 6 7 8 7 6 6 5 4 4 4 4 5 5 6 6 5 5 4 2 4 5 5 6 6 6 6 6 5 5 6 6 5 5 5 4 4 6 6 7 7 8 9 9 9 10 11 11 11 11 11 12 13 14 15 16 17 17 16 16 18 19 20 22 20 18 18 18 19 20 20 20 20 21 21 20 20 19 19 18 17
6 6 6 7 8 6 3 4 5 6 8 8 7 6 5 4 4 4 4 6 6 5 4 4 5 4 3 4 4 4 6 6 6 6 6 6 6 6 6 6 5 5 4 5 6 7 8 8 9 9 10 10 10 10 11 12 11 10 10 12 13 14 16 16 17 17 18 18 19 21 21 20 19 20 21 21 21 20 20 21 21 20 20 20 19 19 18 17
5 5 6 6 7 6 4 4 5 6 7 7 6 6 5 4 3 3 4 6 6 5 4 4 4 5 5 5 5 6 6 5 6 6 7 7 7 7 7 6 6 5 5 5 6 7 8 8 8 9 9 9 9 10 11 12 11 11 11 11 11 13 14 15 16 17 18 18 19 19 21 22 21 22 23 23 23 22 22 21 19 19 19 19 18 18 18 17
3 4 4 5 6 6 4 4 5 6 7 7 7 5 4 3 3 4 4 4 5 5 5 5 5 7 8 7 7 7 7 6 7 7 7 8 8 8 7 7 6 6 6 5 5 6 7 8 9 8 8 7 7 9 10 10 10 10 9 8 9 10 11 12 13 15 16 18 19 19 23 24 24 25 26 26 25 22 20 18 18 19 18 18 18 18 18 18
3 3 3 4 5 5 4 4 4 6 6 7 7 5 4 3 3 4 4 3 4 5 5 6 8 9 9 9 8 8 7 8 8 8 8 8 8 7 7 7 6 6 6 5 5 5 6 7 8 7 6 5 4 6 7 8 7 6 5 6 7 8 9 10 11 13 15 18 20 21 25 26 24 26 27 26 24 20 18 19 19 21 21 20 19 18 19 21
4 5 4 3 4 4 4 4 4 5 5 7 7 5 4 4 3 3 5 4 4 7 8 8 10 10 10 10 9 8 7 8 9 8 8 8 8 7 7 7 7 6 6 5 5 5 5 5 5 5 5 4 4 5 6 6 5 5 6 7 8 9 9 10 11 12 14 17 20 22 26 27 24 26 26 23 22 20 20 23 24 25 25 23 21 21 22 24
4 5 5 5 5 5 5 4 4 4 5 6 7 6 5 5 3 2 4 5 5 8 9 8 9 10 10 9 8 8 7 7 8 8 8 8 8 8 7 8 8 7 5 5 5 6 5 5 5 5 5 5 5 5 5 5 5 6 8 8 9 9 8 9 10 11 14 16 18 20 24 26 23 22 21 19 20 21 22 26 28 28 27 25 24 25 25 25
5 5 6 6 6 6 6 4 4 4 5 7 7 7 7 6 5 3 4 5 4 6 9 9 9 9 9 9 8 9 8 7 8 8 8 8 8 9 8 8 8 7 6 6 6 6 5 4 5 5 5 6 6 6 5 5 6 8 8 8 8 7 7 8 8 9 12 13 15 15 13 15 20 20 18 17 20 22 22 27 29 28 28 28 28 27 26 25
6 7 7 7 8 8 7 5 5 5 5 7 7 8 8 7 6 5 6 6 5 7 10 9 10 9 8 8 8 9 7 7 8 8 8 8 8 9 8 8 8 6 6 7 6 5 3 4 5 4 4 4 4 4 4 4 6 7 8 9 9 8 7 7 8 9 10 11 14 15 9 13 28 30 22 21 23 24 24 27 28 28 29 29 28 27 26 26
7 9 10 10 10 9 7 6 6 6 6 7 8 8 8 7 6 6 6 6 5 7 9 9 9 8 8 8 8 9 7 8 9 7 8 8 8 8 8 8 7 6 6 6 6 5 4 5 5 4 3 2 2 3 4 5 6 7 9 10 10 9 8 8 10 11 13 16 19 20 15 15 29 34 26 23 24 23 25 26 26 27 27 28 27 25 26 26
9 10 10 9 8 7 6 6 6 6 7 8 9 9 8 6 4 5 5 2 3 6 7 8 8 7 9 9 8 9 8 8 9 8 9 8 8 8 8 7 5 5 5 6 6 6 5 5 5 3 2 1 3 4 5 7 7 8 10 10 10 9 9 10 12 13 15 17 18 19 14 10 22 35 31 27 28 25 24 25 25 25 25 25 26 25 26 26
7 6 5 4 4 5 5 6 6 7 8 9 9 7 5 2 2 4 3 0 3 5 5 8 8 7 9 9 9 9 9 9 8 8 9 8 8 8 7 6 5 4 5 5 5 4 4 4 3 2 2 2 4 5 7 9 8 9 9 9 9 9 11 12 12 15 13 12 16 18 12 5 18 38 33 24 23 19 18 20 21 23 23 25 26 26 27 27
2 2 3 3 4 5 6 7 7 8 8 8 7 4 2 1 1 1 0 1 5 4 5 7 7 8 9 9 9 10 9 8 8 8 8 8 8 8 7 6 4 4 5 4 4 3 3 4 4 3 3 4 6 7 9 9 9 9 9 9 9 9 12 12 12 14 8 7 13 13 10 6 11 31 29 16 16 17 19 21 20 21 21 23 25 26 27 28
3 3 4 5 5 5 6 7 7 7 7 5 3 1 2 2 1 1 0 2 4 3 4 6 7 8 9 9 10 10 9 9 9 9 8 9 8 8 7 5 4 5 5 4 3 3 4 5 5 5 5 6 7 8 9 9 9 10 9 9 9 8 9 9 9 8 2 4 9 10 10 8 11 23 28 23 23 23 21 22 23 24 24 25 27 28 28 28
5 4 4 4 4 4 4 5 4 4 4 2 2 2 2 2 1 2 1 2 3 3 4 5 7 8 9 9 10 10 10 9 9 9 9 9 8 7 6 5 5 5 4 4 4 4 5 6 6 6 7 8 8 9 9 10 9 9 9 9 6 4 5 4 4 3 4 8 11 11 9 10 23 35 36 27 22 19 19 22 24 25 26 28 28 28 29 29
5 3 3 2 2 2 2 3 3 2 2 2 3 3 2 2 0 1 1 2 3 3 4 5 6 8 8 9 10 10 10 9 10 10 9 9 9 8 7 6 6 4 4 5 4 4 5 6 8 8 9 9 9 10 9 9 9 9 10 7 3 1 3 3 4 3 7 10 13 15 10 13 27 34 28 21 21 27 31 29 25 25 26 28 28 28 30 29
3 2 2 1 1 1 1 2 2 2 3 2 3 3 1 0 0 1 1 2 3 3 4 4 6 7 9 9 10 11 10 10 11 10 9 10 9 8 7 6 6 4 4 5 3 4 4 6 7 9 9 9 10 10 9 10 10 11 11 7 6 4 2 4 4 3 6 10 15 15 9 10 20 27 31 34 36 36 31 24 23 25 24 25 27 28 28 27
2 1 0 1 1 1 1 0 1 2 3 2 2 1 0 0 1 1 1 2 3 3 4 5 6 7 8 9 10 11 10 10 11 11 10 10 9 8 7 6 6 5 4 4 3 4 5 7 8 9 10 10 11 11 11 11 10 9 9 8 9 9 8 8 8 9 9 8 12 14 16 25 33 41 42 36 32 27 19 19 23 23 22 24 26 25 24 25
0 1 2 3 3 2 1 1 1 2 2 2 1 1 1 2 2 2 2 2 3 4 5 6 7 8 8 9 10 10 10 10 12 11 10 10 9 8 8 7 7 6 5 5 5 4 5 6 8 10 11 12 13 14 13 13 11 10 11 12 13 13 13 11 9 10 7 4 8 12 23 37 38 40 38 26 24 24 17 21 24 21 23 26 26 24 24 25
1 1 2 2 2 2 2 1 0 1 1 1 2 2 2 3 4 3 3 3 4 5 6 6 7 8 9 9 10 10 10 10 11 11 10 10 9 9 9 9 7 6 6 6 5 6 9 10 12 13 13 14 14 15 16 16 15 16 16 15 14 12 11 9 5 3 1 3 7 10 24 37 26 26 37 33 29 27 23 26 25 21 25 28 27 27 25 26
2 1 1 1 2 2 2 2 1 1 1 2 3 3 4 4 4 3 3 4 5 6 7 7 7 8 9 9 10 11 10 10 11 11 10 9 9 9 10 9 7 7 8 8 7 9 11 12 12 11 11 12 13 15 17 18 17 18 18 17 15 11 9 8 4 3 2 2 5 7 19 33 30 30 40 39 34 35 35 33 29 28 32 30 27 28 27 28
3 2 1 2 2 3 2 2 1 2 2 2 3 4 4 4 4 4 4 5 5 6 6 7 7 7 8 9 10 10 10 10 10 10 9 9 9 9 9 8 8 8 9 9 10 10 11 10 9 10 12 12 14 15 17 17 16 17 18 19 18 15 13 13 8 6 5 2 5 6 7 24 38 39 41 42 41 43 40 37 36 37 38 33 29 30 28 28
3 2 1 3 3 4 4 3 2 3 3 3 3 4 4 4 4 5 5 5 6 5 6 7 7 8 8 8 9 10 10 9 9 10 9 10 10 10 9 9 9 10 10 11 11 12 13 11 10 14 16 16 16 17 18 19 18 19 21 20 20 17 15 14 14 16 12 3 3 1 3 30 51 46 43 45 44 41 38 38 40 39 38 36 33 32 29 28
3 1 2 4 5 5 5 4 3 4 4 4 5 5 5 5 4 5 5 5 5 4 5 6 7 7 8 8 8 9 10 8 8 9 9 10 10 9 9 10 11 10 11 12 12 13 12 13 16 20 22 21 20 20 21 23 22 23 24 23 22 20 16 11 9 16 18 12 9 2 5 38 59 48 44 46 41 39 40 41 42 38 36 36 33 32 31 30
2 2 4 5 6 6 5 4 4 4 5 5 6 5 5 5 5 5 4 4 4 4 4 5 6 6 7 8 8 8 9 8 8 9 9 10 10 10 11 12 11 11 12 13 13 13 13 15 20 23 23 21 21 22 22 21 21 23 23 23 22 21 20 15 8 12 15 16 19 7 5 37 58 48 43 43 39 41 44 44 44 38 34 33 30 30 31 31
3 4 5 6 7 6 5 5 4 5 5 5 6 5 5 5 5 4 3 3 3 3 3 4 5 6 6 7 7 8 9 8 8 9 10 10 11 11 12 12 12 12 13 13 12 13 12 13 18 23 25 23 21 19 16 14 16 18 20 21 20 21 23 22 20 20 16 19 22 5 6 36 55 46 42 45 45 48 47 44 42 36 32 31 29 30 30 31
6 6 6 6 6 6 6 6 5 5 5 5 5 5 4 4 4 3 2 2 2 3 3 3 4 5 6 7 7 8 8 8 9 9 10 11 12 12 12 12 13 13 14 14 14 14 13 14 16 17 19 19 16 12 11 13 16 20 24 25 24 24 23 23 28 26 19 26 28 9 12 42 53 46 47 49 49 49 43 36 35 33 32 31 30 31 32 33
6 5 5 5 6 6 6 7 7 5 4 4 5 5 4 3 3 2 2 1 1 2 3 4 4 5 6 7 7 8 8 9 9 10 11 12 12 13 13 13 14 15 15 16 17 17 17 19 19 14 8 8 11 12 16 22 25 28 32 30 29 28 24 24 25 21 19 26 27 19 28 53 57 49 48 47 43 42 35 30 31 32 33 34 33 33 34 35
6 5 5 5 5 6 6 6 7 6 5 4 4 4 3 3 3 2 1 1 1 2 2 3 4 5 6 7 7 8 8 9 10 10 12 12 13 13 14 15 16 16 17 17 18 19 21 23 23 22 20 20 24 26 28 30 32 34 35 34 33 31 29 28 24 26 30 29 30 38 49 58 57 49 44 41 37 34 32 31 34 35 34 34 33 34 36 36
5 5 5 4 4 5 5 5 6 7 6 5 4 3 3 3 2 1 1 0 1 2 2 3 4 5 6 7 8 8 9 10 10 11 12 13 14 15 15 17 17 17 18 18 18 18 22 26 26 26 29 31 32 32 31 32 35 38 38 38 37 34 34 34 32 38 40 28 30 48 51 49 52 49 41 38 35 32 33 35 37 36 34 33 34 37 37 37
5 5 5 4 3 4 5 5 5 6 6 5 4 3 3 3 2 1 1 1 2 2 3 4 4 5 6 8 8 9 11 12 12 12 13 14 16 16 17 18 18 18 18 17 18 18 22 28 28 28 32 33 32 33 33 34 37 41 40 39 38 35 35 38 40 44 42 34 39 51 48 46 50 44 37 36 34 34 37 37 37 35 34 36 38 38 37 35
4 4 4 4 5 5 5 5 5 5 5 5 4 4 3 2 2 1 1 2 3 3 4 5 5 6 7 8 9 10 12 13 13 15 16 17 17 17 19 19 18 19 19 18 21 20 20 26 29 29 33 34 33 34 34 35 38 41 42 41 41 40 40 43 44 42 41 47 50 49 46 47 42 36 36 37 36 36 37 36 37 38 39 41 40 37 35 35
4 5 5 5 5 5 5 5 5 5 4 4 4 3 3 3 2 2 2 3 4 4 5 6 6 8 9 10 11 11 13 14 15 16 17 19 19 19 20 20 20 21 22 22 23 23 22 26 29 31 35 38 35 33 33 34 36 41 46 45 42 42 41 38 36 33 36 43 43 39 42 44 37 34 38 37 34 34 35 38 42 42 42 41 38 36 35 35
5 5 5 5 5 5 5 5 4 4 4 3 3 3 3 3 3 4 5 5 5 6 7 8 8 9 10 11 12 13 15 16 16 17 18 20 21 21 21 22 22 24 25 24 25 26 25 28 31 30 31 38 37 32 32 33 36 45 48 37 27 27 27 25 28 31 32 35 36 34 38 40 38 37 37 34 33 35 38 42 44 43 41 39 37 36 35 35
5 5 4 4 5 5 5 4 4 4 3 3 3 3 4 4 5 6 6 7 7 8 8 9 10 11 12 13 14 15 16 18 18 19 20 21 22 23 23 24 23 24 25 24 24 27 27 29 31 26 25 34 36 30 32 34 34 37 33 22 19 24 26 29 32 31 29 32 34 34 36 38 38 34 34 35 37 39 41 43 44 44 42 39 36 36 36 36
Wind_Direction
145 132 118 112 115 126 140 155 162 168 180 198 205 174 152 138 129 127 104 73 37 350 344 3 340 318 316 314 314 306 293 280 279 289 291 294 298 295 288 284 282 286 288 286 281 273 269 262 258 251 240 231 218 213 212 212 214 217 222 225 229 230 232 235 235 236 240 242 246 249 246 241 240 239 238 237 237 242 246 250 257 262 266 267 268 268 267 266
134 118 100 90 87 94 103 121 139 151 165 188 213 221 225 234 224 205 198 192 217 286 304 318 326 315 309 309 307 301 297 291 292 295 295 296 296 294 292 284 281 285 288 286 278 269 265 259 250 242 236 228 216 212 214 217 221 224 229 234 237 237 238 241 241 239 239 243 246 247 245 243 242 242 240 241 244 250 255 260 265 267 268 268 267 266 263 260
122 110 98 87 77 72 72 71 73 76 79 82 88 110 193 221 221 225 228 229 238 265 288 302 300 296 296 294 293 292 292 295 297 295 293 289 289 297 294 288 286 286 287 285 277 266 258 254 248 239 234 227 220 218 221 225 228 232 235 239 242 243 244 244 243 241 239 242 245 241 240 242 243 243 243 245 252 258 262 265 268 268 267 265 262 259 256 254
114 106 94 79 69 58 47 39 37 35 32 33 35 38 35 37 88 229 249 264 278 290 298 305 285 279 284 283 284 288 291 295 298 299 290 278 292 308 305 296 290 285 285 283 276 267 256 248 243 237 234 228 225 225 228 230 233 237 240 241 244 247 247 247 244 240 237 239 242 238 233 235 238 243 248 254 261 266 269 272 273 270 268 265 260 256 253 250
104 95 80 62 50 38 29 23 16 12 10 11 12 12 5 347 325 316 317 317 321 310 301 298 284 281 285 285 284 288 292 289 292 301 288 277 290 301 301 297 291 285 281 278 273 267 257 247 241 237 234 231 230 230 232 234 236 241 244 244 245 248 249 250 245 236 234 233 233 232 231 235 242 250 257 264 268 271 274 275 275 272 270 267 261 256 253 251
90 74 54 40 34 26 20 15 12 9 7 7 4 358 351 341 335 333 329 324 319 307 295 289 286 284 286 287 289 291 289 284 286 292 287 282 285 290 291 290 287 280 273 269 266 262 256 246 240 237 235 235 236 235 237 239 241 243 245 248 249 251 252 252 245 230 227 227 228 232 237 244 251 258 264 268 273 276 277 278 277 274 270 266 262 258 255 253
75 57 43 32 24 15 12 13 13 9 6 2 357 354 352 348 346 341 333 327 315 304 301 299 294 290 287 286 286 285 283 284 283 282 282 281 284 288 290 288 284 277 268 262 259 257 254 245 239 236 234 236 239 239 241 243 245 245 245 248 251 252 252 248 237 223 224 228 232 238 243 248 254 260 266 270 276 279 280 280 278 276 272 267 263 260 257 252
65 51 41 29 13 1 360 360 356 356 357 352 347 348 349 344 340 336 328 322 313 307 305 296 288 284 281 280 278 277 280 283 282 284 285 285 290 294 293 290 286 281 274 268 265 260 254 247 240 237 235 237 241 241 243 246 247 247 246 250 253 254 253 248 238 231 233 237 240 242 246 251 257 263 269 273 276 278 278 278 277 275 272 268 264 260 255 250
54 42 28 14 1 351 345 340 337 333 330 331 334 335 335 333 328 326 324 322 319 316 303 283 278 275 275 276 273 273 278 282 286 296 298 297 300 300 296 292 288 286 283 278 273 265 258 253 245 240 239 243 247 246 246 248 249 250 250 251 255 255 253 247 241 238 240 241 242 246 250 255 261 266 269 272 274 275 275 275 274 273 271 268 264 260 255 251
34 27 17 5 355 346 338 333 330 323 315 313 316 318 319 318 314 315 322 330 327 312 298 278 266 267 274 274 274 277 284 290 297 307 311 311 311 306 296 287 285 283 280 276 271 264 257 254 250 244 242 244 248 249 249 249 251 253 253 252 253 253 250 245 240 239 240 241 244 249 253 257 261 264 267 271 272 272 272 271 271 271 270 269 265 262 258 254
20 18 9 358 349 338 332 329 326 319 310 307 305 304 305 301 295 295 304 305 292 270 260 248 245 250 273 290 301 311 313 312 313 314 309 309 306 300 290 278 274 271 268 268 265 262 257 251 249 245 243 245 248 250 250 249 249 251 252 253 253 250 247 245 242 241 242 245 249 253 257 259 261 264 266 268 269 268 269 269 270 270 268 267 266 263 260 255
4 6 358 348 341 333 332 331 329 325 319 314 311 306 296 284 273 270 276 278 270 263 253 274 22 330 357 359 342 334 330 324 317 312 304 299 294 286 284 277 271 267 263 264 262 260 259 255 251 245 245 248 250 251 250 248 247 247 249 250 250 247 243 242 242 242 246 249 253 258 260 261 262 264 264 265 268 269 268 268 268 268 267 266 263 260 257 253
342 348 350 349 347 346 349 348 346 345 338 329 324 323 308 293 290 284 289 311 337 3 7 22 2 335 346 352 334 329 329 320 308 305 302 299 294 285 282 282 277 273 265 263 263 260 259 259 256 250 248 250 251 251 251 249 246 245 246 244 244 243 239 241 242 244 247 251 255 257 260 263 265 265 266 269 270 269 269 270 270 268 266 264 260 256 253 249
347 6 20 16 12 12 10 4 1 358 351 342 335 334 335 338 335 335 357 21 28 28 24 26 6 347 343 337 330 328 329 320 302 300 301 297 297 294 289 284 278 274 271 267 264 261 259 257 256 253 250 251 251 251 253 253 250 246 242 238 238 240 241 243 245 246 249 252 257 257 259 265 268 268 270 271 270 271 273 274 272 269 265 260 255 252 248 244
45 56 54 40 25 15 7 4 5 3 0 354 348 351 3 8 5 13 33 39 35 36 30 22 4 342 333 340 342 335 335 334 333 339 332 321 318 310 303 294 283 278 276 272 268 263 259 258 257 254 250 251 251 252 255 252 249 244 235 233 239 242 246 250 250 250 251 253 257 257 260 266 268 269 270 269 271 276 277 275 272 267 261 256 251 247 244 242
74 64 51 29 10 359 360 4 9 13 11 7 14 27 32 28 25 32 40 38 39 40 27 9 355 341 322 338 355 356 357 2 11 9 358 353 348 337 327 313 296 287 281 278 276 269 266 265 262 256 253 253 252 253 253 246 240 236 233 237 244 248 252 255 257 257 255 256 258 258 261 266 268 270 271 272 277 279 277 273 269 263 256 251 247 246 244 243
70 55 34 13 0 348 351 7 19 25 24 28 45 52 52 48 43 42 41 37 36 31 21 13 13 5 348 360 1 357 356 353 355 352 352 356 353 348 342 334 319 303 292 289 287 281 277 273 266 260 258 255 252 250 242 233 235 239 241 246 253 260 263 264 267 267 263 259 260 260 263 267 269 269 271 274 277 276 274 269 263 257 251 248 248 250 249 245
61 47 30 17 8 360 3 21 29 32 31 39 52 58 59 57 57 59 53 39 23 15 11 12 16 6 353 357 348 342 342 339 341 341 343 347 343 339 335 332 326 314 308 303 296 290 283 276 271 265 264 260 255 250 239 237 246 250 255 261 268 272 272 273 273 272 269 264 261 262 265 268 267 269 273 275 276 275 270 263 258 253 249 249 252 254 252 248
52 42 31 21 15 14 27 38 37 36 34 39 48 52 49 48 58 61 49 37 23 12 14 23 23 14 358 341 327 327 331 331 335 334 332 335 335 331 328 322 314 311 312 301 290 288 284 281 275 269 268 265 259 254 248 250 257 261 271 277 277 276 276 277 274 271 271 267 264 265 267 269 269 271 274 275 275 271 263 257 253 249 249 252 254 254 254 253
42 34 27 17 17 21 36 48 45 37 32 34 41 47 43 42 50 47 44 38 19 10 31 40 28 18 6 350 341 336 330 326 326 325 325 332 334 328 326 323 316 314 312 299 287 285 286 282 277 273 272 268 262 258 255 257 264 272 280 282 280 278 278 278 275 271 270 267 267 268 269 272 273 273 275 274 271 267 261 255 247 245 250 254 253 252 256 258
13 13 17 13 12 18 30 45 44 34 29 29 31 35 35 38 47 39 38 31 11 11 33 36 25 17 4 353 346 339 334 329 327 330 334 337 337 331 329 326 322 320 314 310 301 292 284 270 267 272 272 271 265 256 256 261 268 275 279 278 279 279 279 279 274 270 269 266 267 269 270 274 276 275 274 272 271 270 262 249 241 246 251 253 254 255 258 259
321 322 346 360 358 5 15 22 30 24 21 21 18 20 21 28 39 31 25 13 359 7 22 22 14 4 356 351 344 339 340 340 341 346 347 344 339 336 331 324 321 321 321 322 314 300 283 265 260 265 264 261 250 238 243 248 254 265 272 277 277 279 281 279 274 271 267 267 271 273 273 276 277 275 274 273 273 269 253 242 241 247 251 255 261 262 260 259
297 293 297 318 331 340 350 357 5 4 7 7 6 6 358 357 10 27 27 11 5 21 21 11 1 351 348 350 348 348 348 349 351 349 347 345 340 338 332 325 327 329 331 329 320 304 286 265 253 255 254 250 243 233 233 238 247 260 270 278 280 285 284 275 274 271 267 271 276 279 280 281 279 274 275 276 272 263 246 242 244 247 254 260 264 264 261 261
289 283 273 283 303 310 319 334 341 343 350 349 351 355 344 340 340 353 7 355 9 26 16 3 355 348 349 352 353 356 350 348 349 344 343 341 337 335 329 326 329 331 336 332 324 314 293 268 254 257 258 261 265 263 263 264 268 273 280 286 286 290 286 277 275 269 272 277 279 288 291 288 284 277 279 278 268 261 251 248 251 253 258 261 263 265 266 267
281 277 270 274 287 293 298 311 321 323 331 334 338 340 333 326 314 296 324 331 340 1 357 355 355 351 354 356 356 352 344 342 343 339 337 335 333 333 329 328 329 331 334 328 325 321 300 270 260 262 267 272 276 280 284 280 282 290 294 299 300 299 291 286 280 275 283 285 285 300 303 292 290 284 282 280 269 267 261 255 259 261 260 260 263 267 268 269
274 275 273 274 276 281 285 292 302 305 313 322 323 325 322 315 301 285 301 303 295 334 347 350 352 355 357 356 353 347 341 341 342 338 336 334 333 334 332 329 327 328 328 327 327 319 301 273 259 255 260 268 275 283 294 291 296 303 301 305 307 300 292 288 286 286 289 288 291 299 292 285 293 291 286 281 274 274 269 263 265 263 260 261 264 267 268 268
273 276 275 272 268 268 272 277 286 292 303 310 310 313 314 308 298 288 303 307 297 326 343 347 351 356 356 356 353 348 350 347 343 344 342 338 336 335 332 326 325 326 324 324 317 304 296 283 260 240 235 252 290 302 312 310 307 304 300 304 302 296 292 290 293 292 289 291 292 289 280 279 289 292 294 289 282 278 273 271 272 268 264 265 266 267 266 265
282 281 276 271 262 256 258 263 272 283 293 300 302 308 310 304 296 290 300 337 332 327 341 352 354 353 354 356 354 355 360 352 346 348 346 344 340 336 331 327 330 330 322 318 310 298 288 281 264 248 251 303 323 316 312 308 303 297 298 299 297 294 290 292 297 292 292 297 291 283 281 273 281 289 296 294 288 285 280 278 279 275 271 268 267 266 265 264
290 286 280 271 256 248 249 254 267 279 287 294 297 303 304 291 291 294 277 253 326 325 340 349 351 352 352 354 355 359 1 355 351 349 347 347 342 339 338 336 341 338 321 318 319 303 271 263 250 258 284 296 304 305 302 300 297 296 299 297 294 290 286 291 292 289 294 293 282 283 282 258 284 291 294 297 297 298 292 285 279 273 268 266 266 267 267 265
279 275 275 268 259 253 254 260 270 278 283 289 292 293 279 202 234 309 236 300 313 318 333 342 348 351 351 354 357 359 360 359 354 351 352 350 345 348 352 350 354 349 334 330 330 295 254 246 234 250 273 277 283 287 291 294 295 296 300 302 301 296 291 288 282 286 299 283 276 286 278 236 284 293 293 300 309 310 302 293 286 280 273 272 274 274 273 268
269 274 269 266 264 258 261 266 271 276 277 280 274 229 179 171 214 271 146 321 318 319 329 341 350 350 352 356 358 360 1 359 357 357 356 352 353 355 357 356 350 347 344 342 326 280 252 246 241 250 262 268 273 276 284 289 291 294 300 306 307 305 298 285 276 280 270 265 279 291 286 237 233 279 292 299 303 303 301 295 290 286 283 280 280 279 277 272
287 287 275 268 263 257 265 265 263 265 259 250 201 173 155 149 227 295 312 322 318 322 332 343 347 350 355 358 360 2 1 359 360 359 355 357 360 357 357 355 342 336 328 323 302 274 258 253 251 253 259 264 267 273 282 286 289 291 296 306 309 322 332 296 272 271 237 261 281 289 289 248 250 276 293 298 299 302 304 300 291 284 282 280 279 279 278 275
295 295 283 277 265 260 263 248 244 237 205 181 165 159 134 128 174 319 359 342 334 340 344 344 346 353 359 358 2 3 0 2 1 359 359 0 359 357 1 356 346 339 321 316 296 273 266 256 252 253 259 262 266 273 279 283 289 290 294 303 292 4 25 296 266 292 272 271 286 290 286 264 270 285 298 300 300 303 304 303 296 287 283 282 281 280 282 282
295 299 290 288 284 261 244 221 203 172 159 146 145 152 156 195 139 56 55 7 4 9 359 353 354 359 2 1 5 4 2 4 2 0 1 358 358 359 357 351 347 341 327 323 293 265 262 257 256 255 260 265 267 271 274 281 291 290 287 284 265 244 229 256 247 241 272 286 291 287 273 260 275 291 299 299 300 304 305 304 302 296 290 289 287 282 286 288
294 332 56 84 72 79 67 221 164 154 143 127 135 139 41 309 129 107 70 24 21 19 11 11 7 5 6 4 5 5 5 5 1 2 1 357 359 357 351 348 343 337 333 322 294 275 266 264 265 263 267 271 272 274 277 285 291 286 276 269 268 263 250 256 259 257 272 300 290 271 263 271 283 294 298 297 304 312 312 309 309 303 296 296 292 286 287 289
258 93 104 98 76 65 40 343 171 157 131 114 124 84 65 100 112 106 79 50 37 31 26 22 13 10 10 7 7 8 8 5 3 3 0 356 357 353 350 345 335 331 329 314 302 290 277 275 279 281 281 278 276 277 277 280 281 276 276 275 277 277 269 266 270 270 271 292 282 266 274 283 292 302 302 302 311 315 314 316 317 307 302 301 295 293 292 290
165 132 117 106 85 69 37 353 283 169 150 116 76 75 113 118 107 97 83 62 52 44 36 27 18 13 12 10 10 10 9 7 4 3 1 358 357 351 346 341 334 328 320 314 306 293 289 291 291 289 284 278 277 278 275 275 275 275 278 282 282 282 277 268 270 292 270 266 271 256 274 285 287 296 302 306 311 313 314 319 318 310 310 309 301 298 294 288
209 194 162 140 111 85 50 18 43 132 149 123 91 101 120 115 105 97 81 66 58 48 38 32 23 15 13 12 10 10 10 6 3 4 2 358 355 349 345 341 335 328 319 315 307 299 299 301 299 292 282 282 282 278 277 279 278 277 277 277 276 272 266 261 260 296 290 276 280 256 273 282 276 282 301 310 313 315 318 320 319 316 318 316 306 302 295 287
246 248 222 181 134 101 81 69 97 126 134 132 117 121 116 106 107 100 81 67 58 48 39 33 25 19 16 12 10 9 7 4 2 3 359 355 351 346 345 344 336 327 318 312 304 302 302 297 295 292 287 289 288 282 282 285 284 281 277 273 272 266 260 259 247 249 261 245 286 292 279 281 282 290 304 313 315 316 318 321 322 323 324 320 311 307 300 287
267 274 189 156 131 113 108 112 123 127 134 139 130 124 114 110 111 97 81 68 59 49 38 31 25 21 15 11 9 6 4 1 358 358 354 351 350 345 343 342 333 323 314 308 304 303 299 284 279 289 290 288 291 291 290 289 285 280 278 275 273 269 261 264 257 253 259 231 246 331 282 283 290 298 305 311 315 315 317 321 323 324 324 321 316 313 306 290
262 226 139 135 126 119 120 128 135 134 137 135 126 119 114 114 108 94 83 68 59 49 36 28 21 17 11 8 6 3 2 358 353 354 349 347 348 343 337 333 328 322 314 309 305 300 295 284 279 285 289 291 295 295 290 287 285 282 281 278 277 274 261 261 261 253 252 241 244 230 274 288 296 304 307 310 313 314 318 321 322 323 322 320 319 318 312 301
212 146 132 126 118 117 121 127 140 145 141 132 126 122 115 109 100 95 86 67 56 44 33 24 15 13 7 3 2 359 358 354 351 350 344 343 343 336 334 329 324 321 315 311 307 301 295 287 283 288 294 297 296 293 287 286 285 281 280 279 279 275 260 251 248 256 255 247 255 248 237 287 300 307 308 311 313 314 319 320 320 322 319 317 317 314 311 304
142 127 129 125 118 122 129 135 146 148 138 131 134 131 116 103 96 94 89 73 56 38 29 15 9 9 0 357 358 355 356 351 346 345 341 340 337 331 330 326 322 320 315 311 309 305 299 289 288 296 303 303 298 294 290 287 284 281 283 283 280 277 271 265 259 264 266 252 256 241 216 282 300 309 308 311 313 313 319 321 320 318 313 313 311 306 304 299
126 123 125 125 126 134 140 138 137 134 128 132 139 137 125 111 99 92 86 81 53 30 18 1 356 357 352 354 351 348 351 345 340 341 339 336 334 329 326 322 319 316 312 309 305 303 297 287 286 298 313 315 310 306 298 293 291 289 289 288 284 282 278 271 264 261 263 261 259 237 243 279 297 306 306 311 313 314 321 322 316 311 306 307 304 300 299 296
127 129 134 136 141 148 151 144 132 128 138 142 137 134 133 129 121 107 84 66 32 8 1 352 349 346 345 347 343 341 341 336 333 334 334 332 329 327 323 319 316 312 309 305 301 299 292 284 281 280 280 287 292 296 299 299 296 292 290 288 287 285 278 273 268 254 251 260 252 235 259 282 297 304 306 313 317 317 321 316 308 306 304 304 302 301 301 299
130 140 149 152 153 153 157 151 139 140 150 153 144 142 145 141 136 133 108 64 13 340 337 343 343 337 338 338 337 336 332 330 329 327 329 328 324 324 321 315 313 310 306 301 299 297 290 286 288 282 270 273 287 296 298 296 293 290 290 289 286 284 279 273 262 251 256 259 254 259 270 283 297 307 313 320 324 322 318 311 307 307 305 305 306 306 307 305
135 146 153 154 155 152 152 156 154 148 146 148 151 154 164 166 164 166 166 83 349 334 320 331 335 331 332 333 332 332 328 327 326 323 324 324 320 320 317 313 311 307 304 300 296 293 289 290 293 290 287 291 297 299 297 294 292 291 292 291 287 284 278 268 259 265 269 258 262 279 282 281 293 309 320 324 327 322 314 311 310 308 307 307 309 309 309 307
142 152 155 159 164 155 149 159 166 157 154 162 164 163 170 171 179 195 217 262 296 313 310 319 330 327 326 325 325 326 324 324 324 324 323 321 319 317 313 312 310 305 303 299 294 291 288 291 295 294 295 298 297 298 298 294 293 293 292 292 289 285 278 271 273 280 274 257 267 288 291 284 292 311 323 324 324 318 312 311 309 307 307 307 309 310 309 308
155 165 167 166 163 154 151 162 169 166 168 176 181 187 193 189 199 222 258 276 281 294 302 309 320 321 320 319 317 319 320 320 321 322 321 319 318 317 313 312 309 305 303 299 296 293 286 290 295 295 296 299 297 298 299 295 295 296 294 294 292 287 282 280 284 288 278 267 276 289 290 289 300 319 323 320 318 313 310 311 309 307 307 308 309 310 309 308
156 158 157 160 163 162 165 172 177 180 182 187 193 199 208 221 240 257 273 284 288 292 297 302 307 309 311 313 313 314 315 317 316 316 317 317 317 316 311 309 308 303 301 299 296 293 287 287 292 293 295 299 301 300 300 299 298 297 297 300 298 292 288 284 284 288 280 276 285 291 287 292 310 324 319 316 315 312 310 310 309 308 308 309 311 309 309 309
147 151 155 162 169 174 180 182 186 197 200 203 216 224 228 241 261 271 273 281 289 290 293 297 298 299 303 307 309 310 311 314 316 314 314 314 314 313 308 306 305 300 298 297 294 292 288 285 290 293 291 296 301 302 300 300 299 297 300 308 306 294 289 285 287 293 290 288 294 292 286 297 316 321 316 314 314 313 311 311 311 311 311 312 311 309 309 311
152 157 166 178 181 182 196 204 203 215 225 229 242 253 256 263 272 273 275 284 288 287 290 295 296 298 301 302 305 307 308 310 313 314 314 312 311 311 307 304 303 299 297 295 291 290 289 286 288 288 286 292 298 299 299 304 304 301 306 319 319 304 296 293 294 296 296 294 293 291 295 307 316 316 314 314 315 314 313 313 314 314 316 316 311 308 310 312
Height
3139 3139 3139 3140 3140 3140 3141 3142 3142 3142 3141 3141 3141 3142 3142 3142 3142 3142 3142 3142 3142 3141 3141 3141 3141 3141 3141 3141 3141 3141 3141 3141 3141 3140 3140 3140 3141 3141 3141 3141 3141 3141 3141 3141 3141 3141 3141 3141 3141 3142 3142 3142 3142 3143 3143 3144 3144 3145 3145 3146 3146 3146 3147 3147 3148 3148 3148 3149 3149 3149 3149 3150 3150 3150 3150 3151 3151 3151 3152 3152 3152 3152 3152 3152 3152 3152 3152 3151
3139 3139 3139 3140 3140 3140 3141 3141 3142 3142 3142 3142 3142 3142 3142 3142 3142 3142 3142 3142 3142 3142 3141 3141 3141 3141 3141 3141 3141 3141 3141 3141 3140 3140 3140 3140 3140 3140 3140 3140 3140 3140 3140 3140 3140 3141 3141 3141 3141 3141 3141 3141 3142 3142 3143 3143 3144 3144 3144 3145 3145 3145 3146 3146 3147 3147 3148 3148 3148 3148 3148 3149 3149 3149 3149 3150 3150 3150 3151 3151 3151 3151 3151 3151 3150 3150 3150 3150
3140 3140 3140 3140 3140 3141 3141 3141 3142 3142 3142 3142 3142 3142 3141 3141 3141 3141 3141 3142 3142 3142 3141 3141 3141 3141 3141 3141 3141 3141 3141 3141 3140 3140 3140 3140 3140 3140 3140 3140 3140 3140 3140 3140 3140 3140 3140 3140 3140 3140 3141 3141 3141 3142 3142 3142 3143 3143 3143 3144 3144 3144 3145 3145 3146 3146 3146 3147 3147 3147 3147 3147 3148 3148 3148 3148 3149 3149 3149 3149 3149 3149 3149 3149 3148 3148 3148 3148
3140 3140 3141 3141 3141 3141 3141 3141 3141 3141 3141 3142 3142 3142 3141 3141 3141 3141 3141 3141 3141 3141 3141 3141 3141 3141 3141 3141 3141 3141 3141 3140 3140 3140 3140 3140 3140 3140 3140 3140 3139 3139 3139 3139 3139 3139 3140 3140 3140 3140 3140 3140 3140 3141 3141 3141 3141 3142 3142 3142 3143 3143 3144 3144 3144 3145 3145 3145 3145 3146 3146 3146 3146 3147 3147 3147 3147 3147 3148 3147 3147 3147 3147 3147 3146 3146 3146 3146
3141 3141 3141 3142 3142 3142 3142 3141 3141 3141 3141 3141 3141 3141 3141 3141 3141 3141 3141 3140 3140 3140 3140 3140 3140 3140 3140 3140 3140 3140 3140 3140 3140 3140 3140 3140 3139 3139 3139 3139 3139 3139 3138 3138 3138 3138 3139 3139 3139 3139 3139 3139 3139 3140 3140 3140 3140 3140 3141 3141 3142 3142 3142 3143 3143 3143 3144 3144 3144 3144 3144 3145 3145 3145 3145 3145 3145 3146 3146 3145 3145 3145 3145 3145 3145 3144 3144 3144
3141 3141 3141 3142 3142 3142 3142 3142 3142 3141 3141 3141 3141 3141 3141 3140 3140 3140 3140 3140 3140 3140 3140 3140 3140 3140 3140 3140 3139 3139 3139 3139 3139 3139 3139 3139 3139 3139 3138 3138 3138 3138 3138 3138 3137 3138 3138 3138 3138 3138 3138 3138 3138 3138 3139 3139 3139 3139 3140 3140 3141 3141 3141 3142 3142 3142 3142 3143 3143 3143 3143 3143 3143 3143 3143 3143 3143 3143 3143 3143 3143 3143 3143 3143 3142 3142 3142 3142
3141 3141 3142 3142 3142 3142 3142 3142 3142 3142 3141 3141 3141 3140 3140 3140 3140 3140 3140 3139 3139 3139 3139 3139 3139 3139 3139 3139 3139 3139 3138 3138 3138 3138 3138 3138 3138 3138 3138 3137 3137 3137 3137 3137 3137 3137 3137 3137 3137 3137 3137 3137 3137 3137 3137 3138 3138 3138 3139 3139 3140 3140 3140 3141 3141 3141 3141 3141 3142 3142 3142 3142 3142 3142 3141 3141 3141 3141 3141 3141 3140 3140 3140 3140 3140 3140 3140 3140
3142 3142 3142 3142 3142 3142 3142 3142 3142 3142 3142 3141 3141 3141 3140 3140 3140 3139 3139 3139 3139 3139 3138 3138 3138 3138 3138 3138 3138 3138 3138 3138 3138 3138 3138 3137 3137 3137 3137 3136 3136 3136 3136 3136 3136 3136 3136 3136 3136 3136 3136 3136 3136 3136 3136 3137 3137 3137 3138 3138 3139 3139 3139 3140 3140 3140 3140 3140 3140 3140 3140 3140 3140 3140 3139 3139 3139 3139 3139 3138 3138 3138 3138 3138 3138 3138 3138 3138
3142 3142 3142 3142 3142 3142 3142 3142 3142 3141 3141 3141 3141 3141 3141 3140 3140 3139 3139 3139 3138 3138 3138 3138 3138 3138 3138 3138 3138 3138 3137 3137 3137 3137 3137 3136 3136 3136 3136 3136 3135 3135 3135 3135 3135 3135 3135 3135 3135 3135 3135 3135 3135 3135 3136 3136 3136 3136 3137 3137 3137 3138 3138 3138 3138 3138 3138 3138 3138 3138 3138 3138 3138 3138 3137 3137 3137 3137 3137 3136 3136 3136 3136 3136 3136 3136 3136 3136
3142 3142 3142 3142 3142 3142 3142 3142 3142 3141 3141 3141 3141 3141 3141 3140 3140 3139 3139 3138 3138 3138 3138 3138 3138 3137 3137 3137 3137 3137 3137 3137 3137 3137 3136 3136 3136 3136 3135 3135 3135 3134 3134 3134 3134 3134 3134 3134 3134 3134 3134 3134 3134 3134 3135 3135 3135 3135 3136 3136 3136 3136 3136 3136 3136 3137 3136 3136 3136 3136 3136 3136 3136 3135 3135 3135 3135 3135 3135 3134 3134 3134 3134 3134 3133 3133 3133 3133
3143 3142 3142 3142 3142 3142 3142 3141 3141 3141 3141 3141 3141 3141 3140 3140 3140 3139 3139 3138 3138 3138 3138 3138 3137 3137 3137 3137 3137 3136 3137 3136 3136 3136 3136 3136 3135 3135 3135 3134 3134 3133 3133 3133 3133 3133 3133 3133 3133 3133 3133 3133 3133 3134 3134 3134 3134 3134 3134 3135 3134 3134 3134 3134 3135 3135 3135 3134 3134 3134 3134 3134 3134 3133 3133 3133 3133 3133 3133 3132 3132 3132 3132 3132 3131 3131 3131 3131
3143 3143 3142 3142 3142 3142 3142 3141 3141 3141 3140 3140 3140 3140 3140 3139 3139 3139 3138 3138 3138 3138 3137 3137 3137 3137 3137 3136 3136 3136 3136 3136 3135 3135 3135 3135 3135 3134 3134 3133 3133 3132 3132 3132 3132 3132 3132 3132 3132 3132 3132 3132 3132 3132 3132 3133 3133 3133 3133 3133 3133 3133 3133 3133 3133 3133 3133 3133 3133 3133 3132 3131 3132 3131 3131 3131 3131 3131 3131 3130 3130 3130 3130 3129 3129 3129 3129 3128
3142 3142 3142 3142 3142 3142 3142 3141 3141 3140 3139 3139 3139 3139 3139 3138 3139 3138 3138 3138 3138 3138 3137 3137 3137 3136 3136 3136 3136 3135 3135 3135 3134 3134 3134 3134 3133 3133 3132 3132 3131 3131 3131 3131 3131 3131 3131 3131 3131 3131 3131 3131 3131 3131 3131 3131 3132 3132 3132 3132 3132 3132 3131 3131 3131 3131 3131 3131 3131 3131 3130 3129 3130 3130 3130 3129 3129 3129 3128 3128 3128 3128 3128 3127 3127 3126 3126 3126
3142 3142 3142 3142 3142 3142 3142 3141 3141 3140 3139 3139 3138 3138 3138 3138 3138 3138 3138 3138 3138 3137 3137 3137 3136 3136 3136 3136 3135 3135 3134 3134 3134 3134 3133 3133 3132 3132 3132 3131 3131 3130 3130 3130 3130 3130 3130 3130 3130 3130 3130 3130 3130 3130 3130 3130 3130 3131 3131 3130 3130 3130 3130 3130 3130 3130 3130 3130 3130 3130 3128 3128 3128 3128 3128 3128 3127 3127 3127 3126 3126 3126 3125 3125 3125 3124 3124 3124
3142 3142 3142 3143 3143 3143 3142 3142 3141 3140 3139 3139 3138 3138 3138 3138 3138 3138 3138 3138 3137 3137 3137 3136 3136 3136 3135 3135 3135 3134 3134 3134 3133 3133 3133 3132 3132 3131 3131 3131 3130 3129 3129 3129 3129 3129 3129 3129 3129 3129 3129 3129 3129 3129 3129 3129 3129 3129 3129 3129 3129 3129 3129 3129 3129 3129 3129 3129 3128 3128 3127 3126 3127 3126 3126 3126 3125 3125 3125 3124 3124 3123 3123 3123 3122 3122 3122 3122
3142 3142 3143 3143 3143 3143 3143 3142 3141 3140 3139 3139 3138 3138 3138 3138 3138 3138 3138 3138 3137 3137 3137 3136 3136 3135 3135 3135 3134 3134 3134 3133 3133 3133 3132 3132 3132 3131 3131 3130 3130 3129 3128 3128 3128 3128 3128 3128 3128 3128 3128 3128 3128 3128 3129 3129 3128 3128 3128 3128 3128 3128 3129 3128 3128 3128 3128 3127 3127 3126 3125 3125 3125 3125 3124 3124 3123 3123 3122 3122 3122 3121 3121 3121 3121 3120 3120 3120
3143 3143 3143 3143 3143 3143 3143 3142 3142 3141 3140 3139 3139 3138 3138 3138 3138 3138 3138 3138 3137 3137 3137 3136 3136 3135 3135 3134 3134 3134 3133 3133 3133 3132 3132 3132 3131 3131 3130 3130 3129 3128 3128 3127 3127 3127 3127 3127 3127 3127 3127 3127 3127 3127 3128 3127 3127 3127 3127 3127 3127 3128 3128 3127 3127 3127 3127 3126 3125 3124 3123 3123 3123 3123 3122 3122 3121 3121 3120 3120 3119 3119 3119 3119 3119 3118 3118 3118
3143 3143 3143 3143 3143 3143 3143 3142 3142 3141 3141 3140 3139 3139 3139 3139 3139 3139 3138 3138 3138 3137 3137 3136 3136 3135 3135 3134 3134 3134 3133 3133 3132 3132 3132 3131 3131 3130 3130 3130 3129 3128 3128 3127 3127 3127 3127 3126 3126 3126 3126 3126 3126 3126 3126 3126 3126 3127 3127 3127 3127 3127 3126 3126 3125 3125 3125 3124 3123 3122 3121 3121 3121 3121 3120 3120 3119 3118 3118 3117 3117 3117 3117 3116 3116 3116 3116 3115
3143 3143 3144 3144 3143 3143 3143 3143 3142 3142 3141 3141 3140 3140 3139 3139 3139 3139 3139 3138 3138 3137 3137 3136 3136 3135 3135 3135 3134 3134 3133 3133 3132 3132 3132 3131 3131 3130 3130 3129 3129 3128 3128 3127 3127 3126 3126 3125 3125 3125 3125 3125 3125 3125 3125 3125 3126 3126 3126 3126 3125 3125 3124 3124 3124 3123 3123 3122 3121 3120 3119 3119 3119 3119 3118 3117 3117 3116 3115 3115 3114 3114 3114 3114 3114 3113 3113 3113
3144 3144 3144 3144 3144 3143 3143 3143 3142 3142 3142 3141 3140 3140 3140 3140 3139 3139 3139 3138 3138 3138 3137 3137 3136 3136 3135 3135 3134 3134 3133 3133 3132 3132 3131 3131 3130 3130 3129 3129 3128 3128 3127 3127 3126 3126 3125 3125 3124 3124 3124 3124 3124 3124 3124 3124 3125 3125 3125 3124 3124 3123 3123 3123 3122 3122 3121 3120 3119 3119 3117 3117 3117 3116 3115 3115 3113 3113 3112 3112 3112 3112 3112 3111 3111 3111 3111 3111
3144 3144 3144 3144 3144 3144 3143 3143 3143 3142 3142 3141 3141 3140 3140 3140 3140 3139 3139 3139 3138 3138 3137 3137 3136 3136 3135 3135 3134 3133 3133 3132 3132 3131 3130 3130 3129 3129 3128 3128 3127 3127 3126 3126 3126 3125 3124 3124 3123 3123 3123 3123 3123 3123 3123 3124 3124 3124 3124 3123 3123 3122 3122 3122 3121 3120 3120 3119 3118 3117 3115 3114 3114 3113 3112 3111 3110 3109 3109 3109 3109 3109 3109 3109 3109 3109 3108 3108
3144 3145 3145 3145 3144 3144 3144 3143 3143 3142 3142 3141 3141 3140 3140 3140 3140 3139 3139 3139 3139 3138 3137 3137 3136 3136 3135 3135 3134 3133 3132 3132 3131 3130 3130 3129 3129 3128 3128 3127 3127 3126 3125 3125 3125 3124 3124 3123 3123 3123 3122 3123 3123 3123 3123 3123 3123 3123 3123 3122 3122 3122 3121 3121 3120 3119 3119 3118 3116 3115 3113 3111 3111 3110 3108 3107 3106 3107 3107 3107 3107 3107 3106 3106 3106 3106 3106 3105
3145 3145 3145 3145 3144 3144 3144 3143 3143 3142 3142 3141 3141 3141 3140 3140 3140 3139 3139 3139 3139 3138 3137 3137 3136 3136 3135 3134 3134 3133 3132 3131 3131 3130 3130 3129 3128 3128 3127 3126 3126 3125 3125 3124 3124 3124 3123 3123 3122 3122 3122 3122 3122 3122 3122 3122 3122 3122 3122 3122 3121 3121 3120 3119 3119 3118 3118 3117 3115 3113 3110 3108 3108 3106 3104 3104 3104 3104 3104 3104 3104 3103 3103 3104 3104 3103 3102 3102
3144 3144 3144 3144 3144 3144 3143 3143 3143 3142 3142 3141 3141 3140 3140 3140 3139 3139 3139 3139 3139 3138 3138 3138 3137 3136 3135 3134 3133 3133 3132 3131 3131 3130 3130 3129 3128 3128 3127 3126 3125 3125 3124 3124 3123 3123 3122 3122 3122 3122 3122 3122 3122 3122 3121 3121 3121 3121 3121 3121 3120 3120 3119 3119 3118 3118 3117 3116 3114 3112 3107 3103 3103 3103 3101 3102 3101 3101 3101 3100 3100 3100 3100 3101 3100 3099 3099 3099
3144 3144 3144 3144 3143 3143 3143 3143 3142 3142 3141 3141 3141 3140 3140 3140 3139 3139 3139 3139 3139 3138 3138 3138 3137 3136 3135 3134 3133 3133 3132 3131 3131 3130 3129 3128 3128 3127 3126 3126 3125 3124 3124 3123 3123 3122 3122 3122 3122 3122 3121 3121 3121 3121 3121 3121 3121 3120 3120 3120 3119 3119 3119 3118 3118 3117 3116 3115 3113 3112 3108 3100 3098 3100 3099 3100 3098 3098 3099 3097 3097 3097 3098 3097 3097 3096 3097 3096
3144 3143 3143 3143 3143 3142 3142 3142 3142 3141 3141 3141 3140 3140 3140 3139 3139 3139 3139 3139 3138 3138 3138 3137 3136 3136 3135 3134 3134 3133 3132 3131 3130 3130 3129 3128 3127 3127 3126 3125 3125 3124 3123 3123 3123 3122 3122 3122 3122 3122 3121 3121 3121 3121 3121 3120 3120 3120 3119 3119 3118 3118 3118 3117 3117 3117 3115 3114 3112 3112 3110 3101 3094 3094 3097 3098 3096 3095 3096 3094 3094 3095 3094 3094 3094 3094 3094 3093
3143 3142 3142 3142 3141 3141 3141 3141 3141 3141 3140 3140 3140 3139 3139 3139 3139 3139 3139 3138 3138 3138 3138 3137 3136 3136 3135 3134 3134 3132 3132 3131 3130 3129 3129 3128 3127 3126 3126 3125 3124 3124 3123 3123 3122 3122 3122 3122 3121 3121 3121 3121 3121 3120 3120 3120 3120 3119 3118 3118 3118 3117 3117 3117 3116 3116 3114 3112 3110 3109 3110 3105 3093 3089 3093 3095 3093 3093 3093 3092 3091 3092 3092 3091 3091 3091 3091 3091
3141 3141 3140 3140 3140 3140 3140 3140 3140 3140 3140 3139 3139 3139 3139 3139 3138 3138 3139 3139 3138 3138 3138 3137 3136 3136 3135 3134 3133 3132 3132 3131 3130 3129 3128 3128 3127 3126 3125 3125 3124 3123 3123 3123 3122 3121 3121 3121 3121 3121 3121 3121 3120 3120 3120 3120 3119 3119 3118 3118 3117 3117 3117 3116 3115 3115 3113 3111 3108 3106 3108 3107 3094 3086 3090 3091 3090 3091 3089 3089 3089 3088 3089 3088 3088 3088 3087 3088
3140 3140 3139 3139 3139 3139 3139 3139 3139 3139 3139 3139 3138 3138 3138 3138 3138 3138 3139 3139 3139 3138 3138 3137 3136 3136 3135 3134 3133 3132 3131 3130 3130 3129 3128 3127 3126 3126 3125 3124 3124 3123 3123 3122 3122 3121 3121 3121 3121 3121 3121 3121 3120 3120 3120 3120 3119 3118 3118 3117 3117 3117 3115 3115 3114 3113 3113 3110 3106 3105 3107 3107 3094 3083 3086 3089 3087 3088 3086 3086 3086 3085 3085 3085 3084 3085 3084 3084
3139 3139 3139 3139 3138 3138 3138 3138 3138 3138 3138 3138 3138 3138 3138 3138 3138 3139 3138 3138 3138 3138 3137 3137 3136 3135 3135 3134 3133 3132 3131 3130 3129 3129 3128 3127 3126 3125 3124 3124 3123 3123 3122 3122 3121 3121 3121 3121 3121 3121 3121 3121 3120 3120 3120 3119 3119 3118 3118 3117 3117 3116 3114 3114 3113 3112 3113 3108 3104 3104 3105 3107 3097 3080 3081 3086 3085 3086 3085 3084 3084 3082 3083 3082 3081 3082 3081 3080
3139 3139 3138 3138 3138 3138 3138 3138 3137 3137 3137 3137 3137 3138 3138 3138 3138 3138 3138 3138 3138 3137 3137 3137 3136 3135 3134 3133 3133 3131 3131 3130 3129 3128 3127 3126 3126 3125 3124 3124 3123 3123 3122 3122 3121 3121 3121 3121 3121 3121 3121 3121 3120 3120 3119 3119 3118 3118 3117 3116 3116 3115 3114 3113 3111 3111 3112 3106 3103 3103 3103 3106 3097 3080 3079 3084 3083 3084 3083 3082 3082 3081 3080 3080 3079 3078 3078 3077
3138 3138 3138 3138 3137 3137 3137 3137 3137 3137 3137 3137 3137 3137 3138 3138 3138 3138 3138 3138 3137 3137 3137 3137 3136 3135 3134 3133 3132 3131 3130 3130 3129 3128 3127 3126 3126 3125 3124 3123 3123 3122 3122 3122 3121 3121 3121 3121 3121 3121 3120 3120 3120 3120 3119 3118 3118 3117 3117 3116 3116 3115 3114 3112 3111 3111 3110 3104 3101 3102 3102 3100 3089 3078 3079 3082 3081 3082 3081 3080 3080 3078 3077 3076 3076 3075 3074 3074
3138 3137 3137 3137 3137 3137 3136 3136 3136 3136 3137 3137 3137 3137 3138 3138 3138 3138 3138 3138 3137 3137 3137 3136 3136 3135 3134 3133 3132 3131 3130 3129 3129 3128 3127 3126 3125 3124 3124 3123 3123 3122 3121 3121 3121 3121 3121 3120 3120 3120 3120 3120 3119 3119 3119 3117 3117 3117 3116 3116 3115 3116 3116 3113 3112 3111 3107 3102 3101 3101 3101 3094 3081 3075 3078 3078 3079 3079 3077 3077 3076 3075 3074 3073 3072 3072 3070 3070
3137 3137 3137 3136 3136 3136 3136 3136 3136 3136 3137 3137 3137 3137 3138 3137 3138 3138 3138 3138 3137 3137 3137 3136 3135 3134 3134 3133 3132 3131 3130 3129 3128 3127 3127 3126 3125 3124 3123 3123 3122 3122 3121 3121 3121 3120 3120 3119 3119 3119 3119 3119 3118 3118 3118 3117 3116 3116 3115 3115 3114 3115 3115 3112 3110 3108 3104 3101 3100 3100 3097 3087 3076 3073 3074 3074 3075 3075 3074 3074 3073 3072 3071 3070 3069 3068 3067 3066
3137 3136 3136 3136 3136 3136 3136 3136 3136 3136 3137 3137 3137 3137 3137 3137 3137 3138 3138 3137 3137 3137 3136 3136 3135 3134 3134 3133 3132 3131 3130 3129 3128 3127 3126 3125 3125 3124 3123 3123 3122 3122 3121 3121 3120 3120 3119 3118 3118 3118 3118 3118 3117 3117 3117 3116 3115 3114 3113 3114 3113 3112 3112 3110 3108 3105 3104 3102 3099 3095 3088 3078 3073 3071 3071 3072 3072 3072 3072 3071 3070 3069 3068 3068 3066 3065 3064 3063
3136 3136 3136 3136 3136 3136 3136 3136 3136 3136 3137 3137 3137 3137 3137 3137 3137 3137 3138 3137 3137 3137 3136 3135 3135 3134 3134 3133 3132 3131 3130 3129 3128 3127 3126 3125 3124 3124 3123 3122 3122 3121 3121 3120 3120 3120 3119 3117 3117 3117 3117 3116 3116 3115 3115 3115 3114 3112 3112 3111 3111 3110 3109 3108 3106 3104 3106 3103 3095 3089 3081 3072 3071 3067 3064 3067 3068 3068 3070 3068 3067 3067 3065 3064 3062 3061 3061 3059
3136 3136 3136 3136 3136 3136 3136 3136 3136 3137 3137 3137 3137 3137 3137 3137 3137 3137 3138 3137 3137 3137 3136 3135 3135 3134 3133 3132 3132 3131 3130 3129 3128 3127 3126 3125 3124 3123 3123 3122 3121 3121 3121 3120 3120 3120 3119 3117 3116 3116 3115 3115 3115 3114 3113 3113 3113 3111 3110 3110 3109 3109 3108 3107 3106 3103 3105 3101 3091 3086 3078 3070 3070 3065 3059 3062 3064 3064 3066 3065 3063 3063 3062 3060 3059 3058 3057 3055
3136 3136 3136 3136 3136 3136 3136 3136 3137 3137 3137 3137 3137 3137 3137 3137 3137 3137 3137 3137 3137 3136 3136 3135 3135 3134 3133 3132 3131 3130 3130 3129 3128 3127 3126 3125 3124 3123 3122 3121 3121 3121 3120 3120 3120 3119 3118 3116 3114 3114 3114 3113 3113 3113 3111 3111 3111 3110 3109 3108 3108 3107 3106 3106 3105 3101 3100 3099 3090 3084 3078 3067 3064 3061 3056 3058 3060 3059 3060 3060 3059 3059 3057 3056 3054 3054 3053 3051
3136 3136 3136 3136 3136 3136 3136 3136 3137 3137 3137 3137 3137 3137 3137 3137 3137 3137 3137 3137 3137 3136 3136 3135 3135 3134 3133 3132 3131 3130 3129 3128 3128 3127 3126 3125 3124 3123 3122 3121 3121 3120 3120 3120 3119 3118 3118 3116 3113 3112 3112 3112 3111 3110 3110 3108 3109 3108 3107 3106 3105 3105 3104 3103 3103 3100 3097 3097 3090 3083 3077 3062 3054 3056 3055 3055 3057 3056 3056 3056 3055 3054 3052 3051 3050 3049 3049 3047
3136 3136 3136 3136 3136 3136 3136 3137 3137 3137 3137 3137 3137 3137 3137 3137 3137 3137 3137 3137 3137 3136 3136 3135 3135 3134 3133 3132 3131 3130 3129 3128 3127 3126 3125 3124 3123 3122 3122 3121 3120 3120 3119 3118 3118 3117 3116 3115 3112 3110 3110 3110 3109 3108 3107 3106 3106 3106 3104 3104 3103 3103 3103 3100 3100 3098 3095 3095 3091 3086 3077 3055 3045 3052 3054 3053 3054 3054 3053 3052 3051 3050 3048 3047 3046 3044 3043 3043
3135 3135 3136 3136 3136 3136 3136 3137 3137 3137 3137 3137 3137 3137 3137 3137 3137 3137 3137 3137 3137 3136 3136 3135 3134 3134 3133 3132 3131 3130 3129 3128 3127 3126 3124 3124 3123 3121 3121 3120 3119 3119 3117 3117 3116 3115 3114 3113 3111 3108 3107 3107 3106 3105 3104 3103 3103 3102 3100 3101 3099 3100 3101 3099 3097 3093 3092 3092 3087 3086 3078 3050 3037 3048 3051 3049 3052 3050 3050 3049 3046 3046 3044 3042 3041 3039 3038 3037
3135 3135 3136 3136 3136 3136 3136 3137 3137 3137 3137 3137 3137 3137 3138 3137 3137 3137 3137 3137 3137 3136 3136 3135 3134 3133 3132 3131 3130 3129 3128 3127 3126 3125 3124 3123 3122 3121 3120 3119 3118 3117 3116 3115 3115 3114 3113 3111 3108 3105 3104 3104 3103 3102 3101 3100 3100 3099 3098 3097 3097 3097 3097 3096 3093 3089 3088 3087 3081 3084 3079 3048 3033 3044 3048 3045 3047 3046 3045 3045 3041 3041 3040 3038 3037 3035 3033 3031
3135 3136 3136 3136 3136 3136 3137 3137 3137 3138 3137 3137 3138 3138 3138 3138 3137 3137 3137 3137 3136 3136 3135 3135 3134 3133 3132 3131 3130 3129 3128 3126 3125 3124 3123 3122 3121 3120 3119 3117 3116 3116 3115 3114 3113 3112 3111 3109 3106 3102 3100 3100 3099 3098 3098 3098 3097 3096 3095 3094 3094 3093 3092 3092 3090 3086 3085 3081 3077 3082 3073 3042 3031 3042 3044 3042 3043 3042 3042 3040 3037 3035 3034 3033 3032 3029 3027 3025
3136 3136 3136 3137 3137 3137 3137 3137 3138 3138 3138 3138 3138 3138 3138 3138 3137 3137 3137 3136 3136 3135 3135 3134 3133 3132 3131 3130 3129 3128 3127 3126 3124 3123 3122 3121 3120 3118 3117 3116 3115 3114 3113 3112 3111 3111 3110 3107 3105 3103 3099 3097 3095 3095 3095 3095 3094 3093 3091 3091 3090 3089 3089 3088 3085 3085 3081 3073 3073 3077 3061 3034 3032 3041 3040 3040 3040 3038 3038 3037 3033 3031 3029 3027 3026 3024 3022 3020
3137 3137 3137 3137 3137 3138 3138 3138 3138 3138 3138 3138 3138 3138 3138 3138 3137 3137 3137 3136 3136 3135 3134 3133 3132 3131 3130 3129 3128 3127 3126 3125 3123 3122 3121 3120 3118 3117 3116 3115 3114 3112 3112 3111 3109 3108 3107 3105 3104 3104 3103 3099 3095 3093 3092 3092 3091 3088 3086 3086 3085 3085 3086 3084 3082 3082 3075 3066 3067 3066 3047 3028 3031 3039 3038 3038 3038 3035 3035 3033 3030 3027 3024 3022 3021 3018 3017 3015
3137 3137 3138 3138 3138 3138 3138 3138 3138 3138 3138 3138 3138 3138 3138 3137 3137 3137 3136 3135 3135 3134 3133 3133 3132 3131 3130 3128 3127 3126 3125 3124 3123 3121 3120 3119 3117 3116 3115 3113 3112 3111 3110 3109 3107 3106 3104 3101 3101 3101 3099 3096 3092 3091 3090 3089 3086 3083 3081 3081 3080 3080 3080 3080 3080 3074 3066 3061 3057 3049 3039 3030 3028 3032 3035 3035 3034 3033 3030 3028 3025 3022 3020 3017 3015 3014 3012 3010
3137 3138 3138 3138 3138 3138 3138 3138 3138 3138 3138 3138 3138 3138 3137 3137 3137 3136 3136 3135 3134 3133 3133 3132 3131 3130 3128 3127 3126 3125 3124 3123 3121 3120 3119 3117 3116 3114 3113 3111 3110 3109 3108 3106 3105 3104 3101 3098 3097 3096 3093 3090 3089 3088 3087 3085 3081 3077 3076 3075 3075 3075 3074 3074 3071 3062 3059 3061 3048 3035 3039 3037 3026 3027 3031 3030 3029 3028 3025 3022 3020 3017 3015 3013 3011 3009 3007 3005
3138 3138 3138 3139 3139 3138 3138 3139 3139 3138 3138 3138 3138 3138 3137 3137 3136 3135 3135 3134 3133 3133 3132 3131 3130 3128 3127 3126 3125 3124 3122 3121 3120 3118 3117 3116 3114 3113 3111 3110 3108 3106 3106 3104 3103 3102 3099 3095 3093 3092 3089 3087 3086 3085 3083 3081 3076 3072 3070 3069 3068 3069 3067 3064 3060 3055 3056 3054 3039 3030 3037 3036 3027 3026 3028 3027 3026 3023 3019 3018 3015 3013 3011 3009 3007 3005 3002 3000
3138 3138 3139 3139 3139 3139 3139 3139 3139 3139 3138 3138 3138 3137 3137 3136 3136 3135 3134 3133 3132 3132 3130 3129 3128 3127 3126 3125 3124 3122 3121 3119 3118 3117 3115 3114 3112 3111 3109 3108 3106 3104 3103 3102 3100 3100 3097 3093 3090 3089 3085 3083 3083 3082 3080 3077 3072 3067 3064 3064 3062 3061 3059 3056 3052 3051 3050 3044 3034 3032 3032 3028 3026 3027 3024 3023 3022 3019 3015 3014 3011 3009 3007 3004 3002 3000 2997 2995
3138 3138 3139 3139 3139 3139 3139 3139 3139 3139 3138 3138 3137 3137 3136 3136 3135 3134 3133 3132 3131 3130 3129 3128 3127 3126 3125 3123 3122 3121 3119 3118 3117 3115 3113 3112 3110 3109 3107 3105 3104 3102 3101 3099 3098 3097 3095 3091 3088 3086 3082 3077 3078 3078 3075 3073 3068 3062 3057 3056 3056 3053 3052 3049 3046 3045 3043 3037 3032 3033 3028 3022 3023 3025 3021 3019 3018 3015 3012 3010 3007 3005 3002 2999 2997 2994 2992 2990
3139 3139 3139 3139 3139 3139 3139 3139 3139 3138 3138 3137 3137 3136 3136 3135 3134 3133 3132 3131 3130 3129 3128 3127 3126 3125 3123 3122 3121 3119 3118 3116 3115 3113 3112 3110 3108 3107 3105 3103 3101 3099 3098 3097 3095 3093 3092 3088 3085 3085 3080 3073 3072 3074 3071 3069 3065 3057 3051 3050 3050 3048 3046 3044 3042 3040 3037 3033 3030 3030 3025 3019 3019 3020 3017 3015 3013 3011 3008 3005 3002 2999 2997 2995 2992 2989 2986 2984
3139 3139 3139 3139 3139 3139 3139 3139 3139 3138 3138 3137 3136 3136 3135 3134 3133 3132 3131 3130 3129 3128 3127 3126 3124 3123 3122 3120 3119 3118 3116 3114 3113 3111 3110 3108 3106 3104 3102 3100 3099 3097 3095 3094 3092 3089 3088 3085 3083 3084 3079 3070 3069 3070 3067 3066 3061 3051 3045 3045 3045 3044 3042 3039 3038 3036 3033 3030 3028 3025 3020 3018 3017 3016 3013 3010 3009 3007 3003 3000 2997 2994 2992 2990 2986 2983 2981 2978